| time (UTC) | temp C | wind direction | speed KPH | gust KPH | rain 1hr cm | rain 24hr cm | rain mn cm | humidity % | barometer mb |
| 20260510105333 | 21 | 189 | 12.9 | 19.3 | 0.00 | 0.00 | 0.00 | 63 | 1011.5 |
| 20260510104829 | 21 | 187 | 16.1 | 19.3 | 0.00 | 0.00 | 0.00 | 63 | 1011.3 |
| 20260510104327 | 22 | 194 | 11.3 | 17.7 | 0.00 | 0.00 | 0.00 | 62 | 1011.4 |
| 20260510103823 | 22 | 180 | 16.1 | 20.9 | 0.00 | 0.00 | 0.00 | 62 | 1011.2 |
| 20260510103320 | 22 | 194 | 17.7 | 24.1 | 0.00 | 0.00 | 0.00 | 62 | 1011.2 |
| 20260510102815 | 22 | 189 | 20.9 | 27.4 | 0.00 | 0.00 | 0.00 | 61 | 1011.4 |
| 20260510102311 | 22 | 190 | 19.3 | 24.1 | 0.00 | 0.00 | 0.00 | 61 | 1011.2 |
| 20260510101809 | 22 | 184 | 19.3 | 25.7 | 0.00 | 0.00 | 0.00 | 61 | 1011.0 |
| 20260510101307 | 22 | 192 | 14.5 | 22.5 | 0.00 | 0.00 | 0.00 | 61 | 1011.1 |
| 20260510100802 | 22 | 189 | 16.1 | 25.7 | 0.00 | 0.00 | 0.00 | 60 | 1011.1 |
| 20260510100301 | 22 | 187 | 14.5 | 22.5 | 0.00 | 0.00 | 0.00 | 60 | 1011.3 |
| 20260510095756 | 22 | 202 | 16.1 | 24.1 | 0.00 | 0.00 | 0.00 | 60 | 1011.1 |
| 20260510095251 | 22 | 208 | 12.9 | 22.5 | 0.00 | 0.00 | 0.00 | 59 | 1011.1 |
| 20260510094750 | 22 | 198 | 20.9 | 27.4 | 0.00 | 0.00 | 0.00 | 59 | 1011.2 |
| 20260510094246 | 22 | 196 | 11.3 | 24.1 | 0.00 | 0.00 | 0.00 | 58 | 1011.1 |
| 20260510093742 | 22 | 212 | 17.7 | 20.9 | 0.00 | 0.00 | 0.00 | 58 | 1011.0 |
| 20260510093239 | 22 | 187 | 11.3 | 16.1 | 0.00 | 0.00 | 0.00 | 58 | 1011.0 |
| 20260510092735 | 22 | 212 | 14.5 | 17.7 | 0.00 | 0.00 | 0.00 | 58 | 1011.3 |
| 20260510092231 | 22 | 202 | 14.5 | 17.7 | 0.00 | 0.00 | 0.00 | 58 | 1011.3 |
| 20260510091727 | 22 | 198 | 8.0 | 19.3 | 0.00 | 0.00 | 0.00 | 57 | 1011.1 |
| 20260510091224 | 22 | 185 | 9.7 | 17.7 | 0.00 | 0.00 | 0.00 | 57 | 1011.2 |
| 20260510090720 | 22 | 205 | 12.9 | 14.5 | 0.00 | 0.00 | 0.00 | 57 | 1011.2 |
| 20260510090218 | 22 | 194 | 12.9 | 19.3 | 0.00 | 0.00 | 0.00 | 56 | 1011.1 |
| 20260510085712 | 22 | 187 | 11.3 | 16.1 | 0.00 | 0.00 | 0.00 | 56 | 1011.0 |
| 20260510085208 | 22 | 194 | 20.9 | 20.9 | 0.00 | 0.00 | 0.00 | 56 | 1011.0 |
| 20260510084704 | 22 | 203 | 3.2 | 14.5 | 0.00 | 0.00 | 0.00 | 56 | 1011.2 |
| 20260510084201 | 22 | 196 | 12.9 | 16.1 | 0.00 | 0.00 | 0.00 | 56 | 1011.1 |
| 20260510083658 | 22 | 185 | 12.9 | 14.5 | 0.00 | 0.00 | 0.00 | 56 | 1011.4 |
| 20260510083155 | 22 | 195 | 8.0 | 12.9 | 0.00 | 0.00 | 0.00 | 56 | 1011.2 |
| 20260510082650 | 22 | 195 | 9.7 | 12.9 | 0.00 | 0.00 | 0.00 | 56 | 1011.0 |
| 20260510082146 | 22 | 207 | 9.7 | 17.7 | 0.00 | 0.00 | 0.00 | 56 | 1011.1 |
| 20260510081641 | 22 | 182 | 8.0 | 12.9 | 0.00 | 0.00 | 0.00 | 56 | 1011.2 |
| 20260510081138 | 21 | 210 | 4.8 | 8.0 | 0.00 | 0.00 | 0.00 | 57 | 1011.2 |
| 20260510080637 | 21 | 192 | 4.8 | 14.5 | 0.00 | 0.00 | 0.00 | 56 | 1011.1 |
| 20260510080134 | 21 | 191 | 6.4 | 9.7 | 0.00 | 0.00 | 0.00 | 56 | 1011.3 |
| 20260510075631 | 21 | 224 | 4.8 | 9.7 | 0.00 | 0.00 | 0.00 | 56 | 1011.3 |
| 20260510075128 | 22 | 187 | 4.8 | 8.0 | 0.00 | 0.00 | 0.00 | 55 | 1011.3 |
| 20260510074625 | 22 | 204 | 6.4 | 8.0 | 0.00 | 0.00 | 0.00 | 54 | 1011.2 |
| 20260510074120 | 22 | 210 | 6.4 | 8.0 | 0.00 | 0.00 | 0.00 | 53 | 1011.5 |
| 20260510073617 | 22 | 198 | 6.4 | 11.3 | 0.00 | 0.00 | 0.00 | 52 | 1011.3 |
| 20260510073114 | 22 | 198 | 8.0 | 9.7 | 0.00 | 0.00 | 0.00 | 52 | 1011.6 |
| 20260510072610 | 22 | 202 | 8.0 | 16.1 | 0.00 | 0.00 | 0.00 | 51 | 1011.6 |
| 20260510072107 | 22 | 206 | 4.8 | 12.9 | 0.00 | 0.00 | 0.00 | 50 | 1011.7 |
| 20260510071603 | 22 | 208 | 11.3 | 20.9 | 0.00 | 0.00 | 0.00 | 49 | 1011.4 |
| 20260510071101 | 22 | 192 | 9.7 | 16.1 | 0.00 | 0.00 | 0.00 | 49 | 1011.6 |
| 20260510070557 | 23 | 202 | 4.8 | 16.1 | 0.00 | 0.00 | 0.00 | 48 | 1011.7 |
| 20260510070054 | 23 | 207 | 9.7 | 16.1 | 0.00 | 0.00 | 0.00 | 48 | 1011.5 |
| 20260510065551 | 23 | 192 | 14.5 | 24.1 | 0.00 | 0.00 | 0.00 | 47 | 1011.6 |
| 20260510065047 | 23 | 198 | 14.5 | 22.5 | 0.00 | 0.00 | 0.00 | 47 | 1011.6 |
| 20260510064543 | 23 | 192 | 19.3 | 25.7 | 0.00 | 0.00 | 0.00 | 46 | 1011.8 |
| 20260510064040 | 24 | 196 | 17.7 | 30.6 | 0.00 | 0.00 | 0.00 | 45 | 1011.6 |
| 20260510063537 | 24 | 192 | 19.3 | 24.1 | 0.00 | 0.00 | 0.00 | 44 | 1011.6 |
| 20260510063034 | 24 | 211 | 17.7 | 27.4 | 0.00 | 0.00 | 0.00 | 44 | 1011.5 |
| 20260510062530 | 24 | 187 | 20.9 | 27.4 | 0.00 | 0.00 | 0.00 | 43 | 1011.3 |
| 20260510062025 | 24 | 188 | 17.7 | 24.1 | 0.00 | 0.00 | 0.00 | 43 | 1011.7 |
| 20260510061522 | 24 | 195 | 20.9 | 22.5 | 0.00 | 0.00 | 0.00 | 43 | 1011.6 |
| 20260510061019 | 24 | 194 | 16.1 | 24.1 | 0.00 | 0.00 | 0.00 | 41 | 1011.7 |
| 20260510060515 | 24 | 187 | 17.7 | 25.7 | 0.00 | 0.00 | 0.00 | 41 | 1011.5 |
| 20260510060011 | 25 | 190 | 19.3 | 24.1 | 0.00 | 0.00 | 0.00 | 40 | 1011.4 |
| 20260510055507 | 25 | 181 | 16.1 | 25.7 | 0.00 | 0.00 | 0.00 | 39 | 1011.4 |
| 20260510055006 | 25 | 178 | 17.7 | 25.7 | 0.00 | 0.00 | 0.00 | 39 | 1011.5 |
| 20260510054501 | 25 | 176 | 16.1 | 27.4 | 0.00 | 0.00 | 0.00 | 38 | 1011.6 |
| 20260510053956 | 25 | 190 | 16.1 | 24.1 | 0.00 | 0.00 | 0.00 | 38 | 1011.5 |
| 20260510053451 | 25 | 182 | 14.5 | 20.9 | 0.00 | 0.00 | 0.00 | 38 | 1011.5 |
| 20260510052948 | 25 | 194 | 17.7 | 22.5 | 0.00 | 0.00 | 0.00 | 38 | 1011.4 |
| 20260510052444 | 25 | 190 | 16.1 | 24.1 | 0.00 | 0.00 | 0.00 | 37 | 1011.5 |
| 20260510051940 | 26 | 187 | 16.1 | 25.7 | 0.00 | 0.00 | 0.00 | 37 | 1011.3 |
| 20260510051436 | 26 | 185 | 17.7 | 29.0 | 0.00 | 0.00 | 0.00 | 37 | 1011.3 |
| 20260510050933 | 26 | 186 | 20.9 | 29.0 | 0.00 | 0.00 | 0.00 | 37 | 1011.3 |
| 20260510050430 | 26 | 198 | 20.9 | 27.4 | 0.00 | 0.00 | 0.00 | 37 | 1011.4 |
| 20260510045927 | 26 | 195 | 14.5 | 25.7 | 0.00 | 0.00 | 0.00 | 37 | 1011.6 |
| 20260510045424 | 26 | 180 | 17.7 | 24.1 | 0.00 | 0.00 | 0.00 | 37 | 1011.5 |
| 20260510044921 | 26 | 188 | 17.7 | 25.7 | 0.00 | 0.00 | 0.00 | 37 | 1011.4 |
| 20260510044418 | 26 | 182 | 17.7 | 25.7 | 0.00 | 0.00 | 0.00 | 37 | 1011.4 |
| 20260510043915 | 26 | 188 | 19.3 | 24.1 | 0.00 | 0.00 | 0.00 | 37 | 1011.5 |
| 20260510043410 | 26 | 197 | 20.9 | 25.7 | 0.00 | 0.00 | 0.00 | 36 | 1011.5 |
| 20260510042909 | 26 | 190 | 17.7 | 24.1 | 0.00 | 0.00 | 0.00 | 36 | 1011.3 |
| 20260510042404 | 26 | 193 | 19.3 | 25.7 | 0.00 | 0.00 | 0.00 | 35 | 1011.5 |
| 20260510041900 | 26 | 187 | 22.5 | 25.7 | 0.00 | 0.00 | 0.00 | 35 | 1011.4 |
| 20260510041358 | 27 | 185 | 24.1 | 27.4 | 0.00 | 0.00 | 0.00 | 35 | 1011.3 |
| 20260510040855 | 27 | 184 | 24.1 | 30.6 | 0.00 | 0.00 | 0.00 | 34 | 1011.2 |
| 20260510040352 | 27 | 197 | 25.7 | 29.0 | 0.00 | 0.00 | 0.00 | 34 | 1011.3 |
| 20260510035847 | 27 | 186 | 19.3 | 32.2 | 0.00 | 0.00 | 0.00 | 34 | 1011.3 |
| 20260510035343 | 27 | 187 | 22.5 | 27.4 | 0.00 | 0.00 | 0.00 | 35 | 1011.2 |
| 20260510034839 | 27 | 179 | 24.1 | 29.0 | 0.00 | 0.00 | 0.00 | 34 | 1011.3 |
| 20260510034337 | 27 | 180 | 17.7 | 24.1 | 0.00 | 0.00 | 0.00 | 34 | 1011.2 |
| 20260510033833 | 27 | 191 | 19.3 | 20.9 | 0.00 | 0.00 | 0.00 | 34 | 1011.1 |
| 20260510033330 | 27 | 189 | 20.9 | 24.1 | 0.00 | 0.00 | 0.00 | 33 | 1011.3 |
| 20260510032827 | 27 | 186 | 19.3 | 24.1 | 0.00 | 0.00 | 0.00 | 32 | 1011.3 |
| 20260510032324 | 27 | 186 | 12.9 | 20.9 | 0.00 | 0.00 | 0.00 | 32 | 1011.3 |
| 20260510031819 | 27 | 180 | 14.5 | 19.3 | 0.00 | 0.00 | 0.00 | 31 | 1011.1 |
| 20260510031315 | 27 | 180 | 11.3 | 19.3 | 0.00 | 0.00 | 0.00 | 30 | 1011.4 |
| 20260510030809 | 27 | 190 | 14.5 | 20.9 | 0.00 | 0.00 | 0.00 | 30 | 1011.1 |
| 20260510030306 | 27 | 189 | 19.3 | 20.9 | 0.00 | 0.00 | 0.00 | 29 | 1011.2 |
| 20260510025803 | 28 | 180 | 11.3 | 24.1 | 0.00 | 0.00 | 0.00 | 29 | 1011.0 |
| 20260510025301 | 28 | 185 | 17.7 | 22.5 | 0.00 | 0.00 | 0.00 | 28 | 1011.2 |
| 20260510024757 | 28 | 190 | 19.3 | 27.4 | 0.00 | 0.00 | 0.00 | 28 | 1011.0 |
| 20260510024254 | 28 | 188 | 14.5 | 19.3 | 0.00 | 0.00 | 0.00 | 27 | 1010.9 |
| 20260510023750 | 28 | 190 | 16.1 | 20.9 | 0.00 | 0.00 | 0.00 | 27 | 1010.9 |
| 20260510023247 | 28 | 185 | 14.5 | 19.3 | 0.00 | 0.00 | 0.00 | 26 | 1010.9 |
| 20260510022743 | 28 | 187 | 16.1 | 19.3 | 0.00 | 0.00 | 0.00 | 26 | 1010.6 |
| 20260510022243 | 29 | 190 | 12.9 | 17.7 | 0.00 | 0.00 | 0.00 | 26 | 1010.5 |
| 20260510021743 | 29 | 194 | 11.3 | 19.3 | 0.00 | 0.00 | 0.00 | 26 | 1010.4 |
| 20260510021241 | 29 | 193 | 19.3 | 20.9 | 0.00 | 0.00 | 0.00 | 26 | 1010.5 |
| 20260510020736 | 29 | 189 | 16.1 | 20.9 | 0.00 | 0.00 | 0.00 | 26 | 1010.5 |
| 20260510020231 | 30 | 196 | 20.9 | 22.5 | 0.00 | 0.00 | 0.00 | 25 | 1010.3 |
| 20260510015727 | 30 | 188 | 17.7 | 20.9 | 0.00 | 0.00 | 0.00 | 25 | 1010.2 |
| 20260510015224 | 30 | 189 | 19.3 | 20.9 | 0.00 | 0.00 | 0.00 | 25 | 1010.2 |
| 20260510014719 | 30 | 184 | 19.3 | 22.5 | 0.00 | 0.00 | 0.00 | 25 | 1010.3 |
| 20260510014217 | 30 | 194 | 14.5 | 17.7 | 0.00 | 0.00 | 0.00 | 24 | 1010.2 |
| 20260510013712 | 30 | 179 | 16.1 | 20.9 | 0.00 | 0.00 | 0.00 | 24 | 1010.2 |
| 20260510013208 | 31 | 199 | 14.5 | 24.1 | 0.00 | 0.00 | 0.00 | 23 | 1009.9 |
| 20260510012708 | 31 | 189 | 17.7 | 27.4 | 0.00 | 0.00 | 0.00 | 23 | 1010.0 |
| 20260510012203 | 31 | 193 | 16.1 | 25.7 | 0.00 | 0.00 | 0.00 | 22 | 1009.7 |
| 20260510011658 | 31 | 197 | 14.5 | 20.9 | 0.00 | 0.00 | 0.00 | 21 | 1009.9 |
| 20260510011154 | 32 | 189 | 17.7 | 24.1 | 0.00 | 0.00 | 0.00 | 21 | 1009.9 |
| 20260510010650 | 32 | 189 | 25.7 | 25.7 | 0.00 | 0.00 | 0.00 | 20 | 1009.8 |
| 20260510010148 | 32 | 183 | 17.7 | 20.9 | 0.00 | 0.00 | 0.00 | 19 | 1009.8 |
| 20260510005643 | 32 | 209 | 12.9 | 16.1 | 0.00 | 0.00 | 0.00 | 17 | 1009.8 |
| 20260510005140 | 32 | 189 | 20.9 | 24.1 | 0.00 | 0.00 | 0.00 | 17 | 1010.0 |
| 20260510004639 | 33 | 197 | 12.9 | 24.1 | 0.00 | 0.00 | 0.00 | 17 | 1009.6 |
| 20260510004137 | 33 | 191 | 14.5 | 17.7 | 0.00 | 0.00 | 0.00 | 17 | 1009.8 |
| 20260510003633 | 33 | 205 | 6.4 | 16.1 | 0.00 | 0.00 | 0.00 | 17 | 1009.8 |
| 20260510003129 | 33 | 194 | 9.7 | 12.9 | 0.00 | 0.00 | 0.00 | 17 | 1010.0 |
| 20260510002629 | 33 | 213 | 6.4 | 14.5 | 0.00 | 0.00 | 0.00 | 17 | 1009.7 |
| 20260510002126 | 33 | 199 | 8.0 | 19.3 | 0.00 | 0.00 | 0.00 | 17 | 1009.9 |
| 20260510001623 | 33 | 204 | 19.3 | 20.9 | 0.00 | 0.00 | 0.00 | 17 | 1009.8 |
| 20260510001122 | 33 | 213 | 11.3 | 19.3 | 0.00 | 0.00 | 0.00 | 17 | 1010.1 |
| 20260510000622 | 33 | 207 | 11.3 | 17.7 | 0.00 | 0.00 | 0.00 | 17 | 1009.7 |
| 20260510000120 | 33 | 191 | 9.7 | 17.7 | 0.00 | 0.00 | 0.00 | 16 | 1009.9 |
| 20260509235616 | 33 | 200 | 6.4 | 19.3 | 0.00 | 0.00 | 0.00 | 16 | 1010.0 |
| 20260509235113 | 33 | 203 | 11.3 | 19.3 | 0.00 | 0.00 | 0.00 | 16 | 1010.0 |
| 20260509234608 | 33 | 225 | 11.3 | 17.7 | 0.00 | 0.00 | 0.00 | 17 | 1009.9 |
| 20260509234107 | 33 | 174 | 14.5 | 20.9 | 0.00 | 0.00 | 0.00 | 17 | 1010.0 |
| 20260509233604 | 34 | 187 | 17.7 | 17.7 | 0.00 | 0.00 | 0.00 | 18 | 1010.1 |
| 20260509233101 | 33 | 182 | 8.0 | 14.5 | 0.00 | 0.00 | 0.00 | 18 | 1010.0 |
| 20260509232557 | 33 | 193 | 11.3 | 22.5 | 0.00 | 0.00 | 0.00 | 18 | 1010.0 |
| 20260509232054 | 33 | 193 | 11.3 | 14.5 | 0.00 | 0.00 | 0.00 | 17 | 1010.0 |
| 20260509231550 | 33 | 200 | 8.0 | 14.5 | 0.00 | 0.00 | 0.00 | 18 | 1010.1 |
| 20260509231048 | 34 | 243 | 14.5 | 17.7 | 0.00 | 0.00 | 0.00 | 17 | 1010.2 |
| 20260509230545 | 34 | 230 | 9.7 | 12.9 | 0.00 | 0.00 | 0.00 | 18 | 1010.2 |
| 20260509230042 | 34 | 232 | 8.0 | 20.9 | 0.00 | 0.00 | 0.00 | 18 | 1010.3 |
| 20260509225537 | 34 | 219 | 9.7 | 20.9 | 0.00 | 0.00 | 0.00 | 18 | 1010.2 |
| 20260509225033 | 34 | 214 | 9.7 | 19.3 | 0.00 | 0.00 | 0.00 | 17 | 1010.4 |
| 20260509224529 | 34 | 226 | 19.3 | 19.3 | 0.00 | 0.00 | 0.00 | 17 | 1010.1 |
| 20260509224026 | 33 | 238 | 9.7 | 25.7 | 0.00 | 0.00 | 0.00 | 19 | 1010.2 |
| 20260509223523 | 33 | 234 | 20.9 | 24.1 | 0.00 | 0.00 | 0.00 | 19 | 1010.3 |
| 20260509223021 | 33 | 230 | 17.7 | 32.2 | 0.00 | 0.00 | 0.00 | 18 | 1010.5 |
| 20260509222516 | 34 | 246 | 14.5 | 29.0 | 0.00 | 0.00 | 0.00 | 18 | 1010.2 |
| 20260509222012 | 33 | 236 | 6.4 | 16.1 | 0.00 | 0.00 | 0.00 | 20 | 1010.3 |
| 20260509221508 | 33 | 195 | 12.9 | 19.3 | 0.00 | 0.00 | 0.00 | 19 | 1010.4 |
| 20260509221004 | 33 | 211 | 9.7 | 19.3 | 0.00 | 0.00 | 0.00 | 20 | 1010.5 |
| 20260509220500 | 33 | 188 | 6.4 | 16.1 | 0.00 | 0.00 | 0.00 | 21 | 1010.4 |
| 20260509215956 | 33 | 197 | 14.5 | 32.2 | 0.00 | 0.00 | 0.00 | 21 | 1010.4 |
| 20260509215452 | 33 | 210 | 4.8 | 11.3 | 0.00 | 0.00 | 0.00 | 20 | 1010.6 |
| 20260509214950 | 33 | 192 | 14.5 | 20.9 | 0.00 | 0.00 | 0.00 | 20 | 1010.4 |
| 20260509214447 | 33 | 189 | 12.9 | 19.3 | 0.00 | 0.00 | 0.00 | 19 | 1010.5 |
| 20260509213943 | 33 | 194 | 11.3 | 11.3 | 0.00 | 0.00 | 0.00 | 19 | 1010.6 |
| 20260509213439 | 33 | 194 | 24.1 | 30.6 | 0.00 | 0.00 | 0.00 | 20 | 1010.6 |
| 20260509212937 | 33 | 138 | 9.7 | 12.9 | 0.00 | 0.00 | 0.00 | 19 | 1010.6 |
| 20260509212434 | 33 | 186 | 20.9 | 24.1 | 0.00 | 0.00 | 0.00 | 20 | 1011.0 |
| 20260509211930 | 33 | 180 | 11.3 | 17.7 | 0.00 | 0.00 | 0.00 | 21 | 1011.2 |
| 20260509211426 | 33 | 199 | 16.1 | 19.3 | 0.00 | 0.00 | 0.00 | 20 | 1011.1 |
| 20260509210923 | 33 | 191 | 12.9 | 22.5 | 0.00 | 0.00 | 0.00 | 20 | 1011.2 |
| 20260509210420 | 32 | 180 | 12.9 | 20.9 | 0.00 | 0.00 | 0.00 | 21 | 1011.1 |
| 20260509205915 | 32 | 195 | 19.3 | 32.2 | 0.00 | 0.00 | 0.00 | 22 | 1011.4 |
| 20260509205415 | 32 | 194 | 16.1 | 25.7 | 0.00 | 0.00 | 0.00 | 21 | 1011.4 |
| 20260509204911 | 33 | 177 | 19.3 | 30.6 | 0.00 | 0.00 | 0.00 | 20 | 1011.5 |
| 20260509204408 | 33 | 233 | 9.7 | 22.5 | 0.00 | 0.00 | 0.00 | 22 | 1011.6 |
| 20260509203904 | 32 | 253 | 12.9 | 16.1 | 0.00 | 0.00 | 0.00 | 22 | 1011.8 |
| 20260509203400 | 32 | 239 | 12.9 | 22.5 | 0.00 | 0.00 | 0.00 | 21 | 1011.9 |
| 20260509202858 | 32 | 198 | 17.7 | 24.1 | 0.00 | 0.00 | 0.00 | 21 | 1011.9 |
| 20260509202353 | 32 | 193 | 4.8 | 16.1 | 0.00 | 0.00 | 0.00 | 21 | 1012.2 |
| 20260509201849 | 33 | 234 | 6.4 | 17.7 | 0.00 | 0.00 | 0.00 | 21 | 1012.2 |
| 20260509201344 | 32 | 239 | 11.3 | 19.3 | 0.00 | 0.00 | 0.00 | 25 | 1012.0 |
| 20260509200841 | 32 | 187 | 12.9 | 19.3 | 0.00 | 0.00 | 0.00 | 25 | 1012.2 |
| 20260509200336 | 32 | 189 | 9.7 | 16.1 | 0.00 | 0.00 | 0.00 | 26 | 1012.5 |
| 20260509195833 | 32 | 237 | 16.1 | 17.7 | 0.00 | 0.00 | 0.00 | 26 | 1012.4 |
| 20260509195333 | 31 | 191 | 14.5 | 16.1 | 0.00 | 0.00 | 0.00 | 25 | 1012.3 |
| 20260509194833 | 31 | 178 | 8.0 | 19.3 | 0.00 | 0.00 | 0.00 | 26 | 1012.5 |
| 20260509194330 | 31 | 192 | 17.7 | 20.9 | 0.00 | 0.00 | 0.00 | 26 | 1012.5 |
| 20260509193827 | 31 | 177 | 12.9 | 25.7 | 0.00 | 0.00 | 0.00 | 26 | 1012.6 |
| 20260509193326 | 31 | 209 | 22.5 | 33.8 | 0.00 | 0.00 | 0.00 | 26 | 1012.7 |
| 20260509192823 | 31 | 188 | 6.4 | 17.7 | 0.00 | 0.00 | 0.00 | 28 | 1012.7 |
| 20260509192319 | 31 | 187 | 19.3 | 25.7 | 0.00 | 0.00 | 0.00 | 28 | 1012.8 |
| 20260509191814 | 32 | 193 | 8.0 | 19.3 | 0.00 | 0.00 | 0.00 | 28 | 1012.8 |
| 20260509191310 | 31 | 188 | 16.1 | 20.9 | 0.00 | 0.00 | 0.00 | 27 | 1012.7 |
| 20260509190806 | 31 | 138 | 8.0 | 20.9 | 0.00 | 0.00 | 0.00 | 28 | 1012.7 |
| 20260509190304 | 31 | 185 | 6.4 | 24.1 | 0.00 | 0.00 | 0.00 | 27 | 1013.1 |
| 20260509185801 | 31 | 176 | 11.3 | 22.5 | 0.00 | 0.00 | 0.00 | 28 | 1013.0 |
| 20260509185257 | 31 | 205 | 16.1 | 22.5 | 0.00 | 0.00 | 0.00 | 28 | 1013.0 |
| 20260509184755 | 31 | 196 | 16.1 | 22.5 | 0.00 | 0.00 | 0.00 | 29 | 1012.9 |
| 20260509184252 | 31 | 162 | 12.9 | 20.9 | 0.00 | 0.00 | 0.00 | 29 | 1013.2 |
| 20260509183748 | 30 | 193 | 12.9 | 19.3 | 0.00 | 0.00 | 0.00 | 30 | 1013.0 |
| 20260509183244 | 31 | 172 | 8.0 | 20.9 | 0.00 | 0.00 | 0.00 | 29 | 1013.2 |
| 20260509182739 | 31 | 216 | 6.4 | 22.5 | 0.00 | 0.00 | 0.00 | 30 | 1013.3 |
| 20260509182237 | 31 | 174 | 12.9 | 25.7 | 0.00 | 0.00 | 0.00 | 30 | 1013.5 |
| 20260509181734 | 31 | 192 | 19.3 | 27.4 | 0.00 | 0.00 | 0.00 | 30 | 1013.6 |
| 20260509181232 | 30 | 234 | 8.0 | 16.1 | 0.00 | 0.00 | 0.00 | 30 | 1013.6 |
| 20260509180729 | 30 | 203 | 14.5 | 17.7 | 0.00 | 0.00 | 0.00 | 31 | 1013.3 |
| 20260509180225 | 30 | 201 | 8.0 | 9.7 | 0.00 | 0.00 | 0.00 | 32 | 1013.6 |
| 20260509175721 | 30 | 243 | 9.7 | 9.7 | 0.00 | 0.00 | 0.00 | 32 | 1013.7 |
| 20260509175218 | 30 | 195 | 14.5 | 20.9 | 0.00 | 0.00 | 0.00 | 31 | 1013.7 |
| 20260509174714 | 30 | 222 | 6.4 | 9.7 | 0.00 | 0.00 | 0.00 | 34 | 1013.8 |
| 20260509174209 | 30 | 194 | 11.3 | 16.1 | 0.00 | 0.00 | 0.00 | 34 | 1013.9 |
| 20260509173705 | 29 | 202 | 8.0 | 17.7 | 0.00 | 0.00 | 0.00 | 34 | 1014.1 |
| 20260509173201 | 29 | 187 | 11.3 | 11.3 | 0.00 | 0.00 | 0.00 | 34 | 1013.9 |
| 20260509172657 | 30 | 259 | 19.3 | 19.3 | 0.00 | 0.00 | 0.00 | 34 | 1013.9 |
| 20260509172154 | 30 | 202 | 6.4 | 11.3 | 0.00 | 0.00 | 0.00 | 35 | 1014.0 |
| 20260509171649 | 29 | 225 | 6.4 | 17.7 | 0.00 | 0.00 | 0.00 | 35 | 1014.1 |
| 20260509171146 | 29 | 205 | 3.2 | 9.7 | 0.00 | 0.00 | 0.00 | 36 | 1014.3 |
| 20260509170643 | 28 | 204 | 8.0 | 17.7 | 0.00 | 0.00 | 0.00 | 36 | 1014.2 |
| 20260509170139 | 28 | 207 | 6.4 | 19.3 | 0.00 | 0.00 | 0.00 | 37 | 1014.0 |
| 20260509165637 | 28 | 193 | 8.0 | 14.5 | 0.00 | 0.00 | 0.00 | 38 | 1014.2 |
| 20260509165133 | 28 | 233 | 14.5 | 19.3 | 0.00 | 0.00 | 0.00 | 38 | 1014.4 |
| 20260509164629 | 28 | 272 | 4.8 | 14.5 | 0.00 | 0.00 | 0.00 | 39 | 1014.3 |
| 20260509164125 | 28 | 186 | 8.0 | 17.7 | 0.00 | 0.00 | 0.00 | 39 | 1014.3 |
| 20260509163623 | 28 | 234 | 11.3 | 14.5 | 0.00 | 0.00 | 0.00 | 40 | 1014.4 |
| 20260509163118 | 27 | 227 | 6.4 | 17.7 | 0.00 | 0.00 | 0.00 | 43 | 1014.4 |
| 20260509162616 | 27 | 201 | 9.7 | 20.9 | 0.00 | 0.00 | 0.00 | 42 | 1014.5 |
| 20260509162112 | 27 | 195 | 11.3 | 17.7 | 0.00 | 0.00 | 0.00 | 43 | 1014.6 |
| 20260509161608 | 27 | 188 | 16.1 | 17.7 | 0.00 | 0.00 | 0.00 | 44 | 1014.4 |
| 20260509161108 | 26 | 194 | 14.5 | 20.9 | 0.00 | 0.00 | 0.00 | 44 | 1014.6 |
| 20260509160604 | 26 | 192 | 14.5 | 20.9 | 0.00 | 0.00 | 0.00 | 45 | 1014.5 |
| 20260509160059 | 26 | 190 | 12.9 | 20.9 | 0.00 | 0.00 | 0.00 | 45 | 1014.6 |
| 20260509155556 | 26 | 200 | 9.7 | 9.7 | 0.00 | 0.00 | 0.00 | 45 | 1014.5 |
| 20260509155053 | 26 | 208 | 9.7 | 14.5 | 0.00 | 0.00 | 0.00 | 46 | 1014.3 |
| 20260509154549 | 26 | 203 | 8.0 | 14.5 | 0.00 | 0.00 | 0.00 | 44 | 1014.6 |
| 20260509154046 | 26 | 196 | 14.5 | 17.7 | 0.00 | 0.00 | 0.00 | 43 | 1014.8 |
| 20260509153543 | 26 | 238 | 6.4 | 12.9 | 0.00 | 0.00 | 0.00 | 45 | 1014.5 |
| 20260509153040 | 26 | 203 | 12.9 | 17.7 | 0.00 | 0.00 | 0.00 | 45 | 1014.8 |
| 20260509152536 | 25 | 210 | 11.3 | 22.5 | 0.00 | 0.00 | 0.00 | 47 | 1014.9 |
| 20260509152033 | 25 | 224 | 6.4 | 14.5 | 0.00 | 0.00 | 0.00 | 47 | 1014.9 |
| 20260509151529 | 25 | 192 | 9.7 | 19.3 | 0.00 | 0.00 | 0.00 | 47 | 1015.0 |
| 20260509151027 | 25 | 184 | 6.4 | 9.7 | 0.00 | 0.00 | 0.00 | 48 | 1015.0 |
| 20260509150524 | 25 | 201 | 6.4 | 9.7 | 0.00 | 0.00 | 0.00 | 48 | 1015.2 |
| 20260509150023 | 25 | 219 | 8.0 | 17.7 | 0.00 | 0.00 | 0.00 | 51 | 1015.0 |
| 20260509145518 | 24 | 191 | 12.9 | 14.5 | 0.00 | 0.00 | 0.00 | 52 | 1015.0 |
| 20260509145013 | 24 | 191 | 11.3 | 16.1 | 0.00 | 0.00 | 0.00 | 54 | 1015.0 |
| 20260509144511 | 23 | 229 | 6.4 | 9.7 | 0.00 | 0.00 | 0.00 | 58 | 1015.0 |
| 20260509144008 | 23 | 216 | 4.8 | 12.9 | 0.00 | 0.00 | 0.00 | 61 | 1015.0 |
| 20260509143505 | 23 | 181 | 8.0 | 12.9 | 0.00 | 0.00 | 0.00 | 61 | 1015.1 |
| 20260509143002 | 22 | 189 | 6.4 | 9.7 | 0.00 | 0.00 | 0.00 | 64 | 1015.0 |
| 20260509142458 | 22 | 183 | 8.0 | 11.3 | 0.00 | 0.00 | 0.00 | 65 | 1014.9 |
| 20260509141953 | 22 | 243 | 6.4 | 11.3 | 0.00 | 0.00 | 0.00 | 68 | 1015.0 |
| 20260509141450 | 22 | 212 | 6.4 | 8.0 | 0.00 | 0.00 | 0.00 | 68 | 1015.0 |
| 20260509140947 | 21 | 211 | 3.2 | 11.3 | 0.00 | 0.00 | 0.00 | 71 | 1014.8 |
| 20260509140443 | 21 | 199 | 3.2 | 9.7 | 0.00 | 0.00 | 0.00 | 72 | 1015.1 |
| 20260509135942 | 21 | 225 | 6.4 | 8.0 | 0.00 | 0.00 | 0.00 | 72 | 1015.1 |
| 20260509135439 | 21 | 207 | 3.2 | 6.4 | 0.00 | 0.00 | 0.00 | 74 | 1015.3 |
| 20260509134936 | 20 | 237 | 8.0 | 9.7 | 0.00 | 0.00 | 0.00 | 75 | 1015.3 |
| 20260509134433 | 20 | 203 | 3.2 | 6.4 | 0.00 | 0.00 | 0.00 | 77 | 1015.0 |
| 20260509133931 | 20 | 178 | 6.4 | 8.0 | 0.00 | 0.00 | 0.00 | 78 | 1015.0 |
| 20260509133427 | 19 | 210 | 3.2 | 9.7 | 0.00 | 0.00 | 0.00 | 80 | 1014.9 |
| 20260509132925 | 19 | 177 | 8.0 | 11.3 | 0.00 | 0.00 | 0.00 | 81 | 1014.8 |
| 20260509132423 | 18 | 210 | 4.8 | 8.0 | 0.00 | 0.00 | 0.00 | 82 | 1014.9 |
| 20260509131920 | 18 | 185 | 8.0 | 9.7 | 0.00 | 0.00 | 0.00 | 83 | 1014.5 |
| 20260509131417 | 18 | 184 | 6.4 | 9.7 | 0.00 | 0.00 | 0.00 | 83 | 1014.8 |
| 20260509130914 | 17 | 183 | 3.2 | 6.4 | 0.00 | 0.00 | 0.00 | 84 | 1014.6 |
| 20260509130409 | 17 | 231 | 3.2 | 9.7 | 0.00 | 0.00 | 0.00 | 85 | 1014.3 |
| 20260509125906 | 17 | 216 | 1.6 | 4.8 | 0.00 | 0.00 | 0.00 | 85 | 1014.3 |
| 20260509125403 | 17 | 178 | 3.2 | 4.8 | 0.00 | 0.00 | 0.00 | 86 | 1014.4 |
| 20260509124859 | 16 | 164 | 3.2 | 8.0 | 0.00 | 0.00 | 0.00 | 87 | 1014.2 |
| 20260509124356 | 16 | 188 | 6.4 | 8.0 | 0.00 | 0.00 | 0.00 | 88 | 1014.4 |
| 20260509123854 | 16 | 180 | 4.8 | 6.4 | 0.00 | 0.00 | 0.00 | 89 | 1014.4 |
| 20260509123351 | 16 | 193 | 3.2 | 4.8 | 0.00 | 0.00 | 0.00 | 89 | 1014.3 |
| 20260509122846 | 16 | 188 | 3.2 | 3.2 | 0.00 | 0.00 | 0.00 | 89 | 1014.3 |
| 20260509122343 | 15 | 269 | 0.0 | 1.6 | 0.00 | 0.00 | 0.00 | 89 | 1014.3 |
| 20260509121840 | 15 | 344 | 1.6 | 3.2 | 0.00 | 0.00 | 0.00 | 89 | 1014.2 |
| 20260509121337 | 15 | 59 | 1.6 | 3.2 | 0.00 | 0.00 | 0.00 | 89 | 1014.0 |
| 20260509120836 | 15 | 135 | 0.0 | 3.2 | 0.00 | 0.00 | 0.00 | 89 | 1014.1 |
| 20260509120333 | 15 | 205 | 0.0 | 3.2 | 0.00 | 0.00 | 0.00 | 88 | 1014.0 |
| 20260509115831 | 16 | 244 | 3.2 | 3.2 | 0.00 | 0.00 | 0.00 | 88 | 1013.8 |
| 20260509115328 | 16 | 221 | 1.6 | 3.2 | 0.00 | 0.00 | 0.00 | 88 | 1013.8 |
| 20260509114826 | 16 | 201 | 1.6 | 4.8 | 0.00 | 0.00 | 0.00 | 88 | 1013.7 |
| 20260509114324 | 16 | 190 | 3.2 | 3.2 | 0.00 | 0.00 | 0.00 | 88 | 1013.6 |
| 20260509113823 | 16 | 214 | 3.2 | 3.2 | 0.00 | 0.00 | 0.00 | 88 | 1013.6 |
| 20260509113319 | 16 | 184 | 3.2 | 4.8 | 0.00 | 0.00 | 0.00 | 88 | 1013.3 |
| 20260509112816 | 16 | 223 | 6.4 | 8.0 | 0.00 | 0.00 | 0.00 | 88 | 1013.3 |
| 20260509112314 | 16 | 228 | 4.8 | 6.4 | 0.00 | 0.00 | 0.00 | 87 | 1013.6 |
| 20260509111810 | 16 | 266 | 3.2 | 4.8 | 0.00 | 0.00 | 0.00 | 87 | 1013.7 |
| 20260509111307 | 16 | 303 | 3.2 | 3.2 | 0.00 | 0.00 | 0.00 | 86 | 1013.6 |
| 20260509110805 | 16 | 169 | 3.2 | 3.2 | 0.00 | 0.00 | 0.00 | 87 | 1013.5 |
| 20260509110301 | 16 | 249 | 3.2 | 6.4 | 0.00 | 0.00 | 0.00 | 86 | 1013.2 |
| 20260509105759 | 16 | 328 | 3.2 | 3.2 | 0.00 | 0.00 | 0.00 | 85 | 1013.1 |